When you browse on this site, cookies collect data to enhance your experience and personalize the content and advertising you see.
Visit our Privacy Policy to learn more. By continuing to use the site, you agree to this use of cookies and data.
  • In Österreich
  • Länderverzeichnis
  • Für 7 Tage
  • Wassertemperatur
  • Wetterkarte
  • News
  • Widgets
  • user-avatar
    Anmelden

    Stündliche Wetter Fier

    Heute, 18 Februar, Dienstag

    Zeit Temperatur Niederschläge Wind Luftdruck Luftfeuchtigkeit
    00:00 +10°C° 0 mm 1 m/S 766 mmHg 72%
    01:00 +10°C° 0 mm 1 m/S 765 mmHg 72%
    02:00 +10°C° 0 mm 1 m/S 765 mmHg 73%
    03:00 +10°C° 0 mm 1 m/S 765 mmHg 73%
    04:00 +9°C° 0 mm 1 m/S 764 mmHg 73%
    05:00 +9°C° 0 mm 1 m/S 764 mmHg 73%
    06:00 +9°C° 0 mm 1 m/S 764 mmHg 73%
    07:00 +9°C° 0 mm 1 m/S 764 mmHg 74%
    08:00 +10°C° 0 mm 2 m/S 764 mmHg 69%
    09:00 +12°C° 0 mm 2 m/S 764 mmHg 64%
    10:00 +14°C° 0 mm 2 m/S 764 mmHg 58%
    11:00 +15°C° 0 mm 2 m/S 764 mmHg 57%
    12:00 +14°C° 0 mm 3 m/S 763 mmHg 55%
    13:00 +16°C° 0 mm 3 m/S 763 mmHg 53%
    14:00 +16°C° 0 mm 3 m/S 763 mmHg 58%
    15:00 +14°C° 0 mm 3 m/S 763 mmHg 62%
    16:00 +14°C° 0 mm 4 m/S 762 mmHg 66%
    17:00 +13°C° 0 mm 3 m/S 763 mmHg 71%
    18:00 +13°C° 0 mm 2 m/S 763 mmHg 77%
    19:00 +10°C° 0 mm 2 m/S 763 mmHg 83%
    20:00 +11°C° 0 mm 1 m/S 763 mmHg 83%
    21:00 +11°C° 0 mm 1 m/S 763 mmHg 84%
    22:00 +11°C° 0 mm 1 m/S 763 mmHg 85%
    23:00 +10°C° 0 mm 1 m/S 763 mmHg 85%

    Morgen, 19 Februar, Mittwoch

    Zeit Temperatur Niederschläge Wind Luftdruck Luftfeuchtigkeit
    00:00 +10°C° 0 mm 1 m/S 764 mmHg 86%
    01:00 +10°C° 0 mm 1 m/S 764 mmHg 86%
    02:00 +10°C° 0 mm 1 m/S 763 mmHg 85%
    03:00 +10°C° 0 mm 1 m/S 763 mmHg 85%
    04:00 +10°C° 0 mm 1 m/S 763 mmHg 85%
    05:00 +10°C° 0 mm 1 m/S 763 mmHg 84%
    06:00 +10°C° 0 mm 1 m/S 763 mmHg 83%
    07:00 +10°C° 0 mm 1 m/S 763 mmHg 83%
    08:00 +11°C° 0 mm 1 m/S 763 mmHg 78%
    09:00 +13°C° 0 mm 1 m/S 763 mmHg 74%
    10:00 +14°C° 0 mm 1 m/S 763 mmHg 69%
    11:00 +15°C° 0 mm 2 m/S 762 mmHg 69%
    12:00 +15°C° 0 mm 2 m/S 762 mmHg 69%
    13:00 +16°C° 0 mm 3 m/S 761 mmHg 69%
    14:00 +16°C° 0.2 mm 3 m/S 761 mmHg 72%
    15:00 +14°C° 0.2 mm 3 m/S 761 mmHg 75%
    16:00 +14°C° 0.2 mm 4 m/S 760 mmHg 79%
    17:00 +13°C° 0.2 mm 3 m/S 760 mmHg 82%
    18:00 +12°C° 0.2 mm 3 m/S 760 mmHg 85%
    19:00 +12°C° 0.2 mm 2 m/S 760 mmHg 88%
    20:00 +12°C° 0.6 mm 2 m/S 760 mmHg 88%
    21:00 +12°C° 0.6 mm 2 m/S 760 mmHg 87%
    22:00 +11°C° 0.6 mm 3 m/S 760 mmHg 86%
    23:00 +11°C° 1.1 mm 3 m/S 759 mmHg 87%

    übermorgen, 20 Februar, Donnerstag

    Zeit Temperatur Niederschläge Wind Luftdruck Luftfeuchtigkeit
    00:00 +11°C° 1.1 mm 3 m/S 759 mmHg 88%
    01:00 +11°C° 1.1 mm 3 m/S 759 mmHg 89%
    02:00 +10°C° 1.9 mm 3 m/S 759 mmHg 90%
    03:00 +10°C° 1.9 mm 3 m/S 759 mmHg 90%
    04:00 +10°C° 1.9 mm 3 m/S 758 mmHg 90%
    05:00 +10°C° 0.6 mm 3 m/S 758 mmHg 89%
    06:00 +10°C° 0.6 mm 4 m/S 759 mmHg 88%
    07:00 +10°C° 0.6 mm 4 m/S 759 mmHg 87%
    08:00 +10°C° 0.6 mm 3 m/S 759 mmHg 86%
    09:00 +10°C° 0.6 mm 3 m/S 759 mmHg 85%
    10:00 +10°C° 0.6 mm 2 m/S 760 mmHg 84%
    11:00 +11°C° 0.4 mm 3 m/S 760 mmHg 81%
    12:00 +10°C° 0.4 mm 5 m/S 760 mmHg 79%
    13:00 +10°C° 0.4 mm 6 m/S 760 mmHg 76%
    14:00 +10°C° 0.1 mm 6 m/S 760 mmHg 71%
    15:00 +11°C° 0.1 mm 6 m/S 760 mmHg 67%
    16:00 +11°C° 0.1 mm 6 m/S 760 mmHg 62%
    17:00 +10°C° 0 mm 6 m/S 761 mmHg 64%
    18:00 +9°C° 0 mm 5 m/S 761 mmHg 66%
    19:00 +8°C° 0 mm 5 m/S 762 mmHg 67%
    20:00 +7°C° 0 mm 5 m/S 762 mmHg 68%
    21:00 +7°C° 0 mm 4 m/S 762 mmHg 69%
    22:00 +7°C° 0 mm 4 m/S 763 mmHg 70%
    23:00 +6°C° 0 mm 4 m/S 763 mmHg 70%

    21 Februar, Freitag

    Zeit Temperatur Niederschläge Wind Luftdruck Luftfeuchtigkeit
    00:00 +7°C° 0 mm 3 m/S 763 mmHg 70%
    01:00 +7°C° 0 mm 3 m/S 764 mmHg 70%
    02:00 +5°C° 0 mm 3 m/S 764 mmHg 69%
    03:00 +5°C° 0 mm 3 m/S 764 mmHg 69%
    04:00 +4°C° 0 mm 3 m/S 764 mmHg 68%
    05:00 +4°C° 0 mm 3 m/S 764 mmHg 68%
    06:00 +4°C° 0 mm 3 m/S 764 mmHg 67%
    07:00 +4°C° 0 mm 3 m/S 765 mmHg 67%
    14:00 +13°C° 0 mm 3 m/S 765 mmHg 41%
    15:00 +12°C° 0 mm 3 m/S 765 mmHg 46%
    16:00 +12°C° 0 mm 4 m/S 765 mmHg 50%
    17:00 +11°C° 0 mm 3 m/S 765 mmHg 54%
    18:00 +10°C° 0 mm 3 m/S 766 mmHg 58%
    19:00 +8°C° 0 mm 3 m/S 766 mmHg 61%
    20:00 +8°C° 0 mm 2 m/S 767 mmHg 61%
    21:00 +8°C° 0 mm 2 m/S 767 mmHg 61%
    22:00 +8°C° 0 mm 2 m/S 767 mmHg 61%
    23:00 +8°C° 0 mm 2 m/S 768 mmHg 61%

    22 Februar, Samstag

    Zeit Temperatur Niederschläge Wind Luftdruck Luftfeuchtigkeit
    00:00 +7°C° 0 mm 2 m/S 768 mmHg 60%
    01:00 +7°C° 0 mm 2 m/S 768 mmHg 60%
    02:00 +7°C° 0 mm 2 m/S 768 mmHg 59%
    03:00 +6°C° 0 mm 2 m/S 768 mmHg 58%
    04:00 +6°C° 0 mm 2 m/S 768 mmHg 58%
    05:00 +5°C° 0 mm 3 m/S 768 mmHg 59%
    06:00 +5°C° 0 mm 3 m/S 769 mmHg 60%
    07:00 +5°C° 0 mm 3 m/S 769 mmHg 61%
    08:00 +8°C° 0 mm 3 m/S 769 mmHg 56%
    09:00 +10°C° 0 mm 2 m/S 770 mmHg 51%
    10:00 +13°C° 0 mm 2 m/S 770 mmHg 47%
    11:00 +13°C° 0 mm 3 m/S 770 mmHg 45%
    12:00 +13°C° 0 mm 3 m/S 770 mmHg 44%
    13:00 +14°C° 0 mm 4 m/S 770 mmHg 43%
    14:00 +14°C° 0 mm 4 m/S 770 mmHg 45%
    15:00 +13°C° 0 mm 5 m/S 769 mmHg 48%
    16:00 +13°C° 0 mm 5 m/S 769 mmHg 50%
    17:00 +12°C° 0 mm 5 m/S 770 mmHg 51%
    18:00 +10°C° 0 mm 4 m/S 770 mmHg 53%
    19:00 +8°C° 0 mm 4 m/S 771 mmHg 54%
    20:00 +8°C° 0 mm 4 m/S 771 mmHg 55%
    21:00 +8°C° 0 mm 3 m/S 771 mmHg 55%
    22:00 +8°C° 0 mm 3 m/S 772 mmHg 55%
    23:00 +8°C° 0 mm 3 m/S 772 mmHg 54%

    23 Februar, Sonntag

    Zeit Temperatur Niederschläge Wind Luftdruck Luftfeuchtigkeit
    00:00 +7°C° 0 mm 3 m/S 772 mmHg 52%
    01:00 +7°C° 0 mm 3 m/S 772 mmHg 51%
    02:00 +7°C° 0 mm 2 m/S 771 mmHg 50%
    03:00 +6°C° 0 mm 2 m/S 771 mmHg 49%
    04:00 +6°C° 0 mm 2 m/S 771 mmHg 48%
    05:00 +6°C° 0 mm 2 m/S 771 mmHg 48%
    06:00 +6°C° 0 mm 2 m/S 771 mmHg 49%
    07:00 +6°C° 0 mm 2 m/S 771 mmHg 49%
    08:00 +9°C° 0 mm 1 m/S 771 mmHg 45%
    09:00 +11°C° 0 mm 1 m/S 771 mmHg 41%
    10:00 +12°C° 0 mm 1 m/S 771 mmHg 38%
    11:00 +13°C° 0 mm 2 m/S 770 mmHg 38%
    12:00 +14°C° 0 mm 2 m/S 770 mmHg 37%
    13:00 +13°C° 0 mm 3 m/S 770 mmHg 37%
    14:00 +13°C° 0 mm 3 m/S 769 mmHg 41%
    15:00 +13°C° 0 mm 3 m/S 769 mmHg 44%
    16:00 +13°C° 0 mm 3 m/S 769 mmHg 48%
    17:00 +12°C° 0 mm 2 m/S 769 mmHg 52%
    18:00 +10°C° 0 mm 2 m/S 769 mmHg 55%
    19:00 +9°C° 0 mm 2 m/S 769 mmHg 59%
    20:00 +9°C° 0 mm 2 m/S 769 mmHg 59%
    21:00 +9°C° 0 mm 2 m/S 769 mmHg 59%
    22:00 +10°C° 0 mm 1 m/S 769 mmHg 60%
    23:00 +9°C° 0 mm 1 m/S 769 mmHg 60%
    Mehr zeigen